{"data":{"norad_id":68867,"intl_designator":"2026-095D","name":"KUIPER-00364","alt_names":[],"object_type":"PAYLOAD","status":"ACTIVE","operator":null,"country":"US","launch_date":"2026-04-28","launch_site_code":"AFETR","launch_vehicle":null,"mission":null,"orbit_class":"UNKNOWN","rcs_meters":null,"size_class":null,"mass_kg":null,"dimensions":null,"purposes":[],"wikipedia_slug":null,"has_3d_model":false,"image_url":null,"decayed_at":null,"tle_current":{"epoch":"2026-09-19T07:22:39.114624Z","epoch_age_seconds":118595,"freshness":"FRESH","line1":"1 68867U 26095D   26262.30739716  .00000146  00000+0  48188-4 0  9994","line2":"2 68867  51.9036 189.4929 0001422  56.5156 303.5943 14.79928199 21627","mean_motion":14.79928199,"eccentricity":0.0001422,"inclination_deg":51.9036,"raan_deg":189.4929,"arg_perigee_deg":56.5156,"mean_anomaly_deg":303.5943,"bstar":4.8188e-5,"rev_number":2162,"period_min":97.302017825799,"perigee_km":628.55429158028,"apogee_km":630.54727798627,"semimajor_km":7007.6877847833,"source":"CELESTRAK","updated_at":"2026-09-20T09:00:24.507709Z"}}}